Douglas, WY

9:37 PM MDT on April 27, 2017 (GMT -0600)
Converse County

Weather History for KDGW - October, 2012

Change the Weather History Date:

Monday, October 15, 2012

  Actual Average Record
Temperature  
Mean Temperature 54 °F 46 °F  
Max Temperature 74 °F 62 °F 82 °F (2014)
Min Temperature 34 °F 30 °F 22 °F (2003)
Degree Days  
Heating Degree Days 11 19  
Month to date heating degree days 298 249  
Since 1 July heating degree days 426 518  
Cooling Degree Days 0 0  
Month to date cooling degree days 0 0  
Year to date cooling degree days 831 486  
Growing Degree Days 4 (Base 50)    
Moisture  
Dew Point 27 °F    
Average Humidity 37    
Maximum Humidity 56    
Minimum Humidity 18    
Precipitation  
Precipitation T in 0.04 in 0.30 in (2004)
Month to date precipitation 0.14 0.64  
Year to date precipitation 4.33 11.92  
Sea Level Pressure  
Sea Level Pressure 29.85 in    
Wind  
Wind Speed 15 mph (West)    
Max Wind Speed 36 mph    
Max Gust Speed 44 mph    
Visibility 10 miles    
Events      
T = Trace of Precipitation, MM = Missing Value Source: NWS Daily Summary

Daily Weather History Graph

Daily Weather History Graph

Search for Another Location

Airport or City:

Trip Planner

Search our weather history database for the weather conditions in past years. The results will help you decide how hot, cold, wet, or windy it might be!

Date:

Astronomy

Oct. 15, 2012 Rise Set
Actual Time 7:15 AM MDT 6:18 PM MDT
Civil Twilight 6:46 AM MDT 6:46 PM MDT
Nautical Twilight 6:14 AM MDT 7:19 PM MDT
Astronomical Twilight 5:41 AM MDT 7:52 PM MDT
Moon 7:30 AM MDT (10/15) 6:17 PM MDT (10/15)
Length of Visible Light 11h 59m
Length of Day
11h 02m
New Moon, 0% of the Moon is Illuminated
Oct 15
New Moon
Oct 21
First Quarter
Oct 29
Full
Nov 6
Last Quarter
Nov 13
New

Hourly Weather History & Observations

Time (MDT) Temp. Windchill Dew Point Humidity Pressure Visibility Wind Dir Wind Speed Gust Speed Precip Events Conditions
12:53 AM 41.0 °F - 21.0 °F 45% 30.01 in 10.0 mi Calm Calm - N/A   Clear
1:53 AM 37.9 °F - 21.9 °F 53% 30.00 in 10.0 mi Calm Calm - N/A   Clear
2:53 AM 37.0 °F - 21.0 °F 52% 29.97 in 10.0 mi Calm Calm - N/A   Clear
3:53 AM 35.1 °F - 21.0 °F 57% 29.96 in 10.0 mi Calm Calm - N/A   Clear
4:53 AM 45.0 °F 42.6 °F 27.0 °F 49% 29.91 in 10.0 mi WSW 4.6 mph - N/A   Clear
5:53 AM 54.0 °F - 28.9 °F 38% 29.88 in 10.0 mi WSW 16.1 mph - N/A   Clear
6:53 AM 54.0 °F - 27.0 °F 35% 29.90 in 10.0 mi West 11.5 mph - N/A   Clear
7:53 AM 51.1 °F - 28.0 °F 41% 29.91 in 10.0 mi West 12.7 mph - N/A   Clear
8:53 AM 61.0 °F - 28.0 °F 29% 29.90 in 10.0 mi WSW 9.2 mph - N/A   Clear
9:53 AM 64.9 °F - 27.0 °F 24% 29.88 in 10.0 mi West 20.7 mph 27.6 mph N/A   Clear
10:53 AM 69.1 °F - 28.0 °F 22% 29.86 in 10.0 mi West 23.0 mph 31.1 mph N/A   Clear
11:53 AM 66.9 °F - 26.1 °F 21% 29.86 in 10.0 mi West 16.1 mph 27.6 mph N/A   Clear
12:53 PM 68.0 °F - 26.1 °F 21% 29.83 in 10.0 mi WNW 28.8 mph 40.3 mph N/A   Clear
1:53 PM 70.0 °F - 27.0 °F 20% 29.79 in 10.0 mi WNW 31.1 mph 40.3 mph N/A   Clear
2:53 PM 73.9 °F - 28.0 °F 18% 29.76 in 10.0 mi West 20.7 mph 33.4 mph N/A   Clear
3:53 PM 71.1 °F - 26.1 °F 19% 29.78 in 10.0 mi WNW 28.8 mph 38.0 mph N/A   Clear
4:53 PM 70.0 °F - 25.0 °F 18% 29.73 in 10.0 mi WNW 17.3 mph 28.8 mph N/A   Partly Cloudy
5:53 PM 68.0 °F - 28.0 °F 22% 29.70 in 10.0 mi West 18.4 mph 31.1 mph N/A   Scattered Clouds
6:53 PM 66.0 °F - 30.0 °F 26% 29.70 in 10.0 mi West 28.8 mph 42.6 mph N/A   Overcast
7:53 PM 64.9 °F - 28.0 °F 25% 29.76 in 10.0 mi WNW 17.3 mph 27.6 mph N/A   Overcast
8:53 PM 60.1 °F - 30.9 °F 33% 29.77 in 10.0 mi WNW 16.1 mph - N/A   Partly Cloudy
9:26 PM 57.2 °F - 30.2 °F 36% 29.90 in 10.0 mi North 20.7 mph 28.8 mph N/A   Scattered Clouds
9:53 PM 55.9 °F - 36.0 °F 47% 29.79 in 10.0 mi NNW 15.0 mph 26.5 mph 0.00 in   Mostly Cloudy
10:53 PM 50.0 °F - 33.1 °F 52% 29.81 in 10.0 mi WSW 9.2 mph - N/A   Mostly Cloudy
11:53 PM 48.0 °F - 33.1 °F 56% 29.83 in 10.0 mi West 4.6 mph - N/A   Mostly Cloudy